Quillayute, WA

8:10 AM PDT on May 24, 2017 (GMT -0700)
Quillayute

Weather History for KUIL - December, 2011

Change the Weather History Date:

Friday, December 2, 2011

  Actual Average Record
Temperature  
Mean Temperature 40 °F 41 °F  
Max Temperature 49 °F 47 °F 64 °F (1969)
Min Temperature 30 °F 35 °F 25 °F (2014)
Degree Days  
Heating Degree Days 25 24  
Month to date heating degree days 48  
Since 1 July heating degree days 1762  
Cooling Degree Days 0 0  
Month to date cooling degree days 0  
Year to date cooling degree days 19  
Moisture  
Dew Point 34 °F    
Average Humidity 96    
Maximum Humidity 100    
Minimum Humidity 71    
Precipitation  
Precipitation 0.01 in 0.48 in 1.97 in (1975)
Month to date precipitation 0.96  
Year to date precipitation 87.51  
Sea Level Pressure  
Sea Level Pressure 30.48 in    
Wind  
Wind Speed 2 mph (ENE)    
Max Wind Speed 7 mph    
Max Gust Speed 9 mph    
Visibility 4 miles    
Events Fog    
T = Trace of Precipitation, MM = Missing Value Source: NWS Daily Summary

Daily Weather History Graph

Daily Weather History Graph

Search for Another Location

Airport or City:

Trip Planner

Search our weather history database for the weather conditions in past years. The results will help you decide how hot, cold, wet, or windy it might be!

Date:

Astronomy

Dec. 02, 2011 Rise Set
Actual Time 7:47 AM PST 4:27 PM PST
Civil Twilight 7:12 AM PST 5:02 PM PST
Nautical Twilight 6:33 AM PST 5:41 PM PST
Astronomical Twilight 5:55 AM PST 6:19 PM PST
Moon 12:35 PM PST (12/2) No Moon Set
Length of Visible Light 9h 50m
Length of Day
8h 39m
First Quarter, 54% of the Moon is Illuminated
Dec 2
First Quarter
Dec 10
Full
Dec 17
Last Quarter
Dec 24
New
Dec 31
First Quarter

Hourly Weather History & Observations

Time (PST) Temp. Windchill Dew Point Humidity Pressure Visibility Wind Dir Wind Speed Gust Speed Precip Events Conditions
12:53 AM 41.0 °F - 39.9 °F 96% 30.47 in 10.0 mi Calm Calm - 0.01 in   Overcast
1:08 AM 39.2 °F - 39.2 °F 100% 30.46 in 8.0 mi Calm Calm - N/A   Mostly Cloudy
1:16 AM 39.2 °F - 39.2 °F 100% 30.46 in 1.8 mi Calm Calm - N/A   Mostly Cloudy
1:22 AM 39.2 °F - 39.2 °F 100% 30.46 in 0.8 mi Calm Calm - N/A   Scattered Clouds
1:36 AM 37.4 °F 34.9 °F 37.4 °F 100% 30.45 in 0.2 mi NW 3.5 mph - N/A Fog Fog
1:53 AM 37.9 °F 35.5 °F 37.0 °F 97% 30.46 in 0.5 mi NW 3.5 mph - N/A Fog Fog
2:01 AM 37.4 °F - 37.4 °F 100% 30.45 in 0.2 mi Calm Calm - N/A Fog Fog
2:16 AM 35.6 °F - 35.6 °F 100% 30.45 in 0.5 mi Calm Calm - N/A Fog Fog
2:37 AM 37.4 °F - 35.6 °F 93% 30.45 in 0.2 mi Calm Calm - N/A Fog Fog
2:44 AM 35.6 °F - 35.6 °F 100% 30.45 in 0.5 mi Calm Calm - N/A Fog Fog
2:53 AM 34.0 °F - 34.0 °F 100% 30.46 in 0.5 mi Calm Calm - N/A Fog Fog
3:00 AM 35.6 °F - 33.8 °F 93% 30.45 in 0.2 mi Calm Calm - N/A Fog Fog
3:08 AM 33.8 °F 29.6 °F 33.8 °F 100% 30.44 in 0.5 mi WNW 4.6 mph - N/A Fog Fog
3:28 AM 35.6 °F - 33.8 °F 93% 30.46 in 0.5 mi Calm Calm - N/A Fog Fog
3:38 AM 33.8 °F - 33.8 °F 100% 30.45 in 0.2 mi Calm Calm - N/A Fog Fog
3:53 AM 34.0 °F 31.0 °F 33.1 °F 96% 30.46 in 0.2 mi ESE 3.5 mph - N/A Fog Fog
4:01 AM 33.8 °F 29.6 °F 33.8 °F 100% 30.46 in 0.5 mi East 4.6 mph - N/A Fog Fog
4:11 AM 33.8 °F - 33.8 °F 100% 30.46 in 0.5 mi Calm Calm - N/A Fog Fog
4:20 AM 33.8 °F - 33.8 °F 100% 30.46 in 0.2 mi Calm Calm - N/A Fog Fog
4:29 AM 33.8 °F - 33.8 °F 100% 30.45 in 0.5 mi Calm Calm - N/A Fog Fog
4:42 AM 33.8 °F 30.8 °F 33.8 °F 100% 30.46 in 1.0 mi ENE 3.5 mph - N/A   Mostly Cloudy
4:46 AM 35.6 °F 32.8 °F 33.8 °F 93% 30.46 in 1.5 mi ENE 3.5 mph - N/A   Mostly Cloudy
4:50 AM 33.8 °F 30.8 °F 33.8 °F 100% 30.46 in 3.0 mi ENE 3.5 mph - N/A   Mostly Cloudy
4:53 AM 34.0 °F 31.0 °F 34.0 °F 100% 30.47 in 3.0 mi East 3.5 mph - N/A   Mostly Cloudy
5:09 AM 35.6 °F 32.8 °F 35.6 °F 100% 30.47 in 10.0 mi NE 3.5 mph - N/A   Partly Cloudy
5:29 AM 33.8 °F - 32.0 °F 93% 30.46 in 1.5 mi Calm Calm - N/A   Partly Cloudy
5:31 AM 33.8 °F - 32.0 °F 93% 30.47 in 0.8 mi Calm Calm - N/A   Mist
5:53 AM 33.1 °F - 33.1 °F 100% 30.48 in 0.5 mi Calm Calm - N/A Fog Fog
6:11 AM 32.0 °F - 32.0 °F 100% 30.47 in 0.5 mi Calm Calm - N/A Fog Fog
6:28 AM 33.8 °F - 33.8 °F 100% 30.46 in 0.5 mi Calm Calm - N/A Fog Fog
6:36 AM 32.0 °F 28.7 °F 32.0 °F 100% 30.46 in 0.2 mi West 3.5 mph - N/A Fog Fog
6:47 AM 30.2 °F - 30.2 °F 100% 30.46 in 0.5 mi Calm Calm - N/A Fog Light Freezing Fog
6:53 AM 30.9 °F - 30.0 °F 96% 30.47 in 0.5 mi Calm Calm - N/A Fog Light Freezing Fog
7:04 AM 32.0 °F - 30.2 °F 93% 30.46 in 0.2 mi Calm Calm - N/A Fog Fog
7:15 AM 32.0 °F 27.5 °F 32.0 °F 100% 30.46 in 0.2 mi NE 4.6 mph - N/A Fog Fog
7:22 AM 32.0 °F 28.7 °F 30.2 °F 93% 30.46 in 1.0 mi ENE 3.5 mph - N/A   Mist
7:28 AM 32.0 °F 27.5 °F 32.0 °F 100% 30.46 in 2.0 mi ENE 4.6 mph - N/A   Mostly Cloudy
7:30 AM 32.0 °F 28.7 °F 32.0 °F 100% 30.46 in 4.0 mi ENE 3.5 mph - N/A   Scattered Clouds
7:53 AM 33.1 °F 30.0 °F 33.1 °F 100% 30.48 in 10.0 mi NE 3.5 mph - N/A   Clear
8:14 AM 33.8 °F - 32.0 °F 93% 30.48 in 4.0 mi Calm Calm - N/A   Partly Cloudy
8:20 AM 32.0 °F - 30.2 °F 93% 30.48 in 1.8 mi Calm Calm - N/A   Partly Cloudy
8:23 AM 30.2 °F 26.7 °F 30.2 °F 100% 30.48 in 1.0 mi ENE 3.5 mph - N/A   Mist
8:34 AM 33.8 °F 30.8 °F 33.8 °F 100% 30.48 in 2.0 mi ENE 3.5 mph - N/A   Scattered Clouds
8:41 AM 33.8 °F - 33.8 °F 100% 30.48 in 10.0 mi Calm Calm - N/A   Partly Cloudy
8:53 AM 33.1 °F - 33.1 °F 100% 30.49 in 8.0 mi Calm Calm - N/A   Clear
9:04 AM 35.6 °F 32.8 °F 33.8 °F 93% 30.49 in 6.0 mi East 3.5 mph - N/A   Partly Cloudy
9:53 AM 37.0 °F - 36.0 °F 96% 30.51 in 10.0 mi Calm Calm - N/A   Partly Cloudy
10:53 AM 42.1 °F - 39.9 °F 92% 30.50 in 10.0 mi Calm Calm - N/A   Clear
11:53 AM 44.1 °F - 39.9 °F 85% 30.49 in 10.0 mi Calm Calm - N/A   Clear
12:53 PM 46.9 °F - 39.9 °F 77% 30.48 in 10.0 mi NW 3.5 mph - N/A   Clear
1:53 PM 48.0 °F - 39.0 °F 71% 30.47 in 10.0 mi Calm Calm - N/A   Clear
2:00 PM - - - N/A% - - North - - N/A   Unknown
2:53 PM 48.0 °F - 39.9 °F 74% 30.48 in 10.0 mi Calm Calm - N/A   Clear
3:53 PM 45.0 °F 43.5 °F 39.9 °F 82% 30.48 in 10.0 mi SW 3.5 mph - N/A   Clear
4:53 PM 39.0 °F - 37.0 °F 93% 30.50 in 8.0 mi Calm Calm - N/A   Clear
5:53 PM 35.1 °F - 35.1 °F 100% 30.50 in 9.0 mi Calm Calm - N/A   Clear
6:53 PM 35.1 °F 32.2 °F 34.0 °F 96% 30.50 in 9.0 mi ENE 3.5 mph - N/A   Clear
7:48 PM 33.8 °F 30.8 °F 33.8 °F 100% 30.50 in 2.5 mi East 3.5 mph - N/A   Clear
7:53 PM 35.1 °F 31.0 °F 34.0 °F 96% 30.51 in 7.0 mi East 4.6 mph - N/A   Clear
8:53 PM 35.1 °F 32.2 °F 34.0 °F 96% 30.51 in 9.0 mi East 3.5 mph - N/A   Clear
9:33 PM 33.8 °F - 32.0 °F 93% 30.50 in 1.8 mi Calm Calm - N/A   Clear
9:43 PM 33.8 °F - 33.8 °F 100% 30.50 in 1.0 mi Calm Calm - N/A   Clear
9:49 PM 32.0 °F - 32.0 °F 100% 30.50 in 2.0 mi Calm Calm - N/A   Clear
9:53 PM 32.0 °F - 30.9 °F 96% 30.51 in 6.0 mi Calm Calm - N/A   Clear
10:06 PM 32.0 °F - 30.2 °F 93% 30.50 in 2.0 mi Calm Calm - N/A   Clear
10:14 PM 32.0 °F - 30.2 °F 93% 30.51 in 1.2 mi Calm Calm - N/A   Clear
10:21 PM 32.0 °F - 30.2 °F 93% 30.51 in 2.0 mi Calm Calm - N/A   Clear
10:29 PM 32.0 °F - 30.2 °F 93% 30.50 in 5.0 mi Calm Calm - N/A   Clear
10:53 PM 33.1 °F 26.9 °F 32.0 °F 96% 30.52 in 10.0 mi ENE 6.9 mph - N/A   Clear
11:53 PM 32.0 °F 26.4 °F 32.0 °F 100% 30.52 in 10.0 mi East 5.8 mph - N/A   Clear